When you browse on this site, cookies collect data to enhance your experience and personalize the content and advertising you see.
Visit our Privacy Policy to learn more. By continuing to use the site, you agree to this use of cookies and data.
  • In Latvia
  • List of Countries
  • For 7 days
  • Water Temperature
  • Weather Map
  • Weather Widgets
  • user-avatar
    Login

    Hourly Weather Rezekne

    Today, 25 February, Tuesday

    Time Temperature Precipitation Wind Pressure Humidity
    00:00 -2°C° 0 mm 3 mps 739 mmHg 79%
    01:00 -2°C° 0 mm 3 mps 739 mmHg 81%
    02:00 -2°C° 0 mm 3 mps 739 mmHg 83%
    03:00 -2°C° 0 mm 3 mps 738 mmHg 84%
    04:00 -2°C° 0 mm 2 mps 738 mmHg 86%
    05:00 -3°C° 0 mm 2 mps 737 mmHg 87%
    06:00 -2°C° 0 mm 2 mps 737 mmHg 86%
    07:00 -2°C° 0 mm 2 mps 737 mmHg 85%
    08:00 -2°C° 0 mm 2 mps 737 mmHg 84%
    09:00 -1°C° 0 mm 2 mps 737 mmHg 77%
    10:00 +1°C° 0 mm 2 mps 737 mmHg 70%
    11:00 +1°C° 0 mm 3 mps 736 mmHg 63%
    12:00 +1°C° 0 mm 3 mps 736 mmHg 60%
    13:00 +2°C° 0 mm 3 mps 735 mmHg 57%
    14:00 +1°C° 0 mm 4 mps 735 mmHg 55%
    15:00 +1°C° 0.1 mm 3 mps 734 mmHg 65%
    16:00 0°C° 0.1 mm 3 mps 733 mmHg 76%
    17:00 0°C° 0.1 mm 3 mps 733 mmHg 87%
    18:00 -1°C° 0.5 mm 4 mps 732 mmHg 90%
    19:00 -1°C° 0.5 mm 4 mps 731 mmHg 93%
    20:00 -2°C° 0.5 mm 5 mps 731 mmHg 96%
    21:00 -1°C° 0.4 mm 4 mps 730 mmHg 96%
    22:00 0°C° 0.4 mm 4 mps 729 mmHg 95%
    23:00 0°C° 0.4 mm 4 mps 729 mmHg 95%

    Tomorrow, 26 February, Wednesday

    Time Temperature Precipitation Wind Pressure Humidity
    00:00 0°C° 0 mm 4 mps 728 mmHg 94%
    01:00 0°C° 0 mm 3 mps 728 mmHg 93%
    02:00 -1°C° 0 mm 3 mps 728 mmHg 92%
    03:00 -1°C° 0 mm 3 mps 727 mmHg 93%
    04:00 -1°C° 0 mm 3 mps 727 mmHg 94%
    05:00 -2°C° 0 mm 2 mps 727 mmHg 95%
    06:00 -2°C° 0 mm 2 mps 727 mmHg 94%
    07:00 -2°C° 0 mm 2 mps 727 mmHg 94%
    08:00 -2°C° 0 mm 2 mps 727 mmHg 93%
    09:00 -1°C° 0 mm 3 mps 727 mmHg 90%
    10:00 0°C° 0 mm 3 mps 728 mmHg 87%
    11:00 +1°C° 0 mm 3 mps 728 mmHg 83%
    12:00 +2°C° 0 mm 3 mps 728 mmHg 81%
    13:00 +2°C° 0 mm 3 mps 728 mmHg 79%
    14:00 +3°C° 0 mm 3 mps 728 mmHg 77%
    15:00 +3°C° 0 mm 2 mps 728 mmHg 79%
    16:00 +3°C° 0 mm 2 mps 728 mmHg 82%
    17:00 +3°C° 0 mm 1 mps 728 mmHg 84%
    18:00 +2°C° 0 mm 2 mps 728 mmHg 84%
    19:00 +1°C° 0 mm 3 mps 728 mmHg 84%
    20:00 +1°C° 0 mm 3 mps 728 mmHg 84%
    21:00 +1°C° 0.2 mm 3 mps 728 mmHg 87%
    22:00 +1°C° 0.2 mm 3 mps 728 mmHg 91%
    23:00 +1°C° 0.2 mm 3 mps 728 mmHg 94%

    Day after tomorrow, 27 February, Thursday

    Time Temperature Precipitation Wind Pressure Humidity
    00:00 +1°C° 0 mm 2 mps 728 mmHg 95%
    01:00 +1°C° 0 mm 2 mps 728 mmHg 96%
    02:00 +1°C° 0 mm 1 mps 728 mmHg 96%
    03:00 +1°C° 0 mm 1 mps 727 mmHg 96%
    04:00 +1°C° 0 mm 1 mps 727 mmHg 95%
    05:00 0°C° 0 mm 1 mps 727 mmHg 95%
    06:00 0°C° 0 mm 1 mps 727 mmHg 94%
    07:00 0°C° 0 mm 1 mps 727 mmHg 94%
    08:00 0°C° 0 mm 1 mps 727 mmHg 93%
    09:00 -1°C° 0 mm 2 mps 727 mmHg 88%
    10:00 +1°C° 0 mm 2 mps 727 mmHg 82%
    11:00 +1°C° 0 mm 3 mps 728 mmHg 77%
    12:00 +1°C° 0 mm 3 mps 728 mmHg 75%
    13:00 0°C° 0 mm 4 mps 728 mmHg 73%
    14:00 0°C° 0 mm 4 mps 728 mmHg 71%
    15:00 -1°C° 0.1 mm 4 mps 727 mmHg 75%
    16:00 -1°C° 0.1 mm 4 mps 727 mmHg 78%
    17:00 -2°C° 0.1 mm 4 mps 727 mmHg 82%
    18:00 -2°C° 0.1 mm 4 mps 727 mmHg 84%
    19:00 -4°C° 0.1 mm 5 mps 727 mmHg 86%
    20:00 -4°C° 0.1 mm 5 mps 727 mmHg 88%
    21:00 -4°C° 0.1 mm 5 mps 727 mmHg 88%
    22:00 -4°C° 0.1 mm 5 mps 727 mmHg 89%
    23:00 -4°C° 0.1 mm 5 mps 727 mmHg 89%

    28 February, Friday

    Time Temperature Precipitation Wind Pressure Humidity
    00:00 -4°C° 0.1 mm 5 mps 727 mmHg 90%
    01:00 -4°C° 0.1 mm 5 mps 727 mmHg 91%
    02:00 -4°C° 0.1 mm 5 mps 727 mmHg 92%
    03:00 -4°C° 0.2 mm 5 mps 728 mmHg 91%
    04:00 -4°C° 0.2 mm 5 mps 728 mmHg 90%
    05:00 -4°C° 0.2 mm 5 mps 728 mmHg 90%
    06:00 -4°C° 0 mm 5 mps 729 mmHg 88%
    07:00 -3°C° 0 mm 4 mps 729 mmHg 86%
    08:00 -3°C° 0 mm 4 mps 730 mmHg 84%
    09:00 -3°C° 0 mm 4 mps 730 mmHg 81%
    10:00 -2°C° 0 mm 4 mps 731 mmHg 78%
    11:00 -2°C° 0 mm 4 mps 731 mmHg 74%
    12:00 -2°C° 0 mm 4 mps 732 mmHg 72%
    13:00 -2°C° 0 mm 4 mps 732 mmHg 70%
    14:00 -2°C° 0 mm 4 mps 733 mmHg 69%
    15:00 -2°C° 0 mm 4 mps 733 mmHg 71%
    16:00 -1°C° 0 mm 3 mps 734 mmHg 72%
    17:00 -2°C° 0 mm 2 mps 734 mmHg 74%
    18:00 -2°C° 0 mm 2 mps 735 mmHg 79%
    19:00 -3°C° 0 mm 2 mps 735 mmHg 83%
    20:00 -3°C° 0 mm 2 mps 735 mmHg 87%
    21:00 -3°C° 0.1 mm 2 mps 736 mmHg 86%
    22:00 -3°C° 0.1 mm 2 mps 736 mmHg 84%
    23:00 -4°C° 0.1 mm 2 mps 737 mmHg 83%

    29 February, Saturday

    Time Temperature Precipitation Wind Pressure Humidity
    00:00 -4°C° 0 mm 2 mps 737 mmHg 83%
    01:00 -4°C° 0 mm 2 mps 737 mmHg 83%
    02:00 -6°C° 0 mm 3 mps 737 mmHg 83%
    03:00 -6°C° 0 mm 3 mps 737 mmHg 82%
    04:00 -6°C° 0 mm 3 mps 738 mmHg 81%
    05:00 -6°C° 0 mm 3 mps 738 mmHg 79%
    06:00 -7°C° 0 mm 4 mps 738 mmHg 80%
    07:00 -7°C° 0 mm 4 mps 738 mmHg 82%
    08:00 -7°C° 0 mm 4 mps 739 mmHg 83%
    09:00 -5°C° 0 mm 4 mps 739 mmHg 81%
    10:00 -4°C° 0 mm 4 mps 739 mmHg 79%
    11:00 -3°C° 0 mm 4 mps 739 mmHg 77%
    12:00 -3°C° 0.1 mm 4 mps 740 mmHg 71%
    13:00 -2°C° 0.1 mm 4 mps 740 mmHg 65%
    14:00 -1°C° 0.1 mm 4 mps 740 mmHg 60%
    15:00 -1°C° 0 mm 3 mps 740 mmHg 64%
    16:00 -1°C° 0 mm 3 mps 741 mmHg 69%
    17:00 -2°C° 0 mm 2 mps 741 mmHg 73%
    18:00 -2°C° 0 mm 2 mps 741 mmHg 78%
    19:00 -3°C° 0 mm 2 mps 741 mmHg 82%
    20:00 -4°C° 0 mm 2 mps 742 mmHg 87%
    21:00 -4°C° 0 mm 2 mps 742 mmHg 87%
    22:00 -4°C° 0 mm 2 mps 742 mmHg 87%
    23:00 -4°C° 0 mm 2 mps 742 mmHg 86%

    1 March, Sunday

    Time Temperature Precipitation Wind Pressure Humidity
    00:00 -4°C° 0 mm 2 mps 742 mmHg 86%
    01:00 -4°C° 0 mm 2 mps 742 mmHg 85%
    02:00 -4°C° 0 mm 2 mps 742 mmHg 85%
    03:00 -5°C° 0 mm 2 mps 742 mmHg 85%
    04:00 -5°C° 0 mm 2 mps 742 mmHg 85%
    05:00 -5°C° 0 mm 2 mps 742 mmHg 85%
    06:00 -5°C° 0 mm 2 mps 742 mmHg 83%
    07:00 -4°C° 0 mm 2 mps 742 mmHg 82%
    08:00 -5°C° 0 mm 3 mps 742 mmHg 80%
    09:00 -4°C° 0 mm 3 mps 742 mmHg 75%
    10:00 -2°C° 0 mm 3 mps 741 mmHg 69%
    11:00 -2°C° 0 mm 4 mps 741 mmHg 63%
    12:00 -2°C° 0 mm 4 mps 741 mmHg 60%
    13:00 -2°C° 0 mm 4 mps 740 mmHg 58%
    14:00 -1°C° 0 mm 4 mps 739 mmHg 55%
    15:00 -2°C° 0.1 mm 4 mps 739 mmHg 65%
    16:00 -3°C° 0.1 mm 4 mps 738 mmHg 75%
    17:00 -3°C° 0.1 mm 4 mps 738 mmHg 84%
    18:00 -3°C° 0.4 mm 4 mps 737 mmHg 88%
    19:00 -3°C° 0.4 mm 4 mps 737 mmHg 91%
    20:00 -3°C° 0.4 mm 4 mps 737 mmHg 94%
    21:00 -2°C° 0.1 mm 4 mps 737 mmHg 94%
    22:00 -2°C° 0.1 mm 4 mps 737 mmHg 95%
    23:00 -1°C° 0.1 mm 5 mps 737 mmHg 95%
    Show more